TimeMST,TemperatureF,Dew PointF,Humidity,Sea Level PressureIn,VisibilityMPH,Wind Direction,Wind SpeedMPH,Gust SpeedMPH,PrecipitationIn,Events,Conditions,WindDirDegrees,DateUTC
5:00 AM,41,26,44,30.04,15,West,20.7,,,Snow,Low Drifting Snow,280,2013-12-26 12:00:00
5:00 AM,41.0,26.6,57,30.04,15.0,West,19.6,-,N/A,,Unknown,280,2013-12-26 12:00:00
5:28 AM,39.2,26.6,61,30.02,15.0,WNW,16.1,-,N/A,,Partly Cloudy,290,2013-12-26 12:28:00
6:00 AM,35.6,24.8,65,30.03,15.0,West,13.8,-,N/A,,Partly Cloudy,280,2013-12-26 13:00:00
7:00 AM,42.8,26.6,53,30.00,15.0,West,19.6,26.5,N/A,,Mostly Cloudy,280,2013-12-26 14:00:00
7:17 AM,41.0,26.6,57,29.99,15.0,West,19.6,-,N/A,,Mostly Cloudy,280,2013-12-26 14:17:00
7:44 AM,41.0,26.6,57,29.99,15.0,West,12.7,-,N/A,,Mostly Cloudy,280,2013-12-26 14:44:00
8:00 AM,41.0,28.4,61,29.99,15.0,West,17.3,-,N/A,,Mostly Cloudy,260,2013-12-26 15:00:00
9:00 AM,42.8,26.6,53,29.98,30.0,West,3.5,-,N/A,,Mostly Cloudy,260,2013-12-26 16:00:00
10:00 AM,37.4,26.6,65,29.97,30.0,SW,9.2,-,N/A,,Mostly Cloudy,220,2013-12-26 17:00:00
10:04 AM,35.6,28.4,75,29.96,30.0,SW,8.1,-,N/A,,Mostly Cloudy,230,2013-12-26 17:04:00
11:00 AM,40,28,49,29.94,28,SSW,6.9,,,,Scattered Clouds,210,2013-12-26 18:00:00
11:00 AM,41.0,26.6,57,29.94,30.0,South,8.1,-,N/A,,Mostly Cloudy,190,2013-12-26 18:00:00
12:00 PM,42.8,28.4,57,29.87,30.0,West,23.0,28.8,N/A,,Mostly Cloudy,260,2013-12-26 19:00:00
1:00 PM,41.0,28.4,61,29.86,30.0,West,15.0,21.9,N/A,,Mostly Cloudy,270,2013-12-26 20:00:00
2:00 PM,44.6,28.4,53,29.84,30.0,West,23.0,-,N/A,,Mostly Cloudy,280,2013-12-26 21:00:00
3:00 PM,44.6,28.4,53,29.83,30.0,West,27.6,38.0,N/A,,Overcast,270,2013-12-26 22:00:00
4:00 PM,44.6,28.4,53,29.83,30.0,West,32.2,38.0,N/A,,Overcast,280,2013-12-26 23:00:00
5:00 PM,44,29,44,29.85,19,West,28.8,,,,Overcast,280,2013-12-27 00:00:00
5:00 PM,44.6,28.4,53,29.85,20.0,West,27.6,34.5,N/A,,Overcast,280,2013-12-27 00:00:00
6:00 PM,44.6,28.4,53,29.86,15.0,West,26.5,36.8,N/A,,Mostly Cloudy,280,2013-12-27 01:00:00
7:00 PM,42.8,28.4,57,29.86,15.0,West,23.0,-,N/A,,Partly Cloudy,270,2013-12-27 02:00:00
8:00 PM,42.8,30.2,61,29.87,15.0,West,19.6,-,N/A,,Partly Cloudy,280,2013-12-27 03:00:00
9:00 PM,42.8,30.2,61,29.88,15.0,West,16.1,-,N/A,,Partly Cloudy,260,2013-12-27 04:00:00
10:00 PM,44.6,30.2,57,29.90,15.0,West,23.0,-,N/A,,Partly Cloudy,270,2013-12-27 05:00:00